Hourly Weather Kozloyal

Today, 21 October, Wednesday

Time Temperature Precipitation Wind Pressure Humidity
00:00 -2°C° 0 mm 4 mps 744 mmHg 90%
01:00 -2°C° 0 mm 4 mps 744 mmHg 91%
02:00 -3°C° 0 mm 4 mps 744 mmHg 92%
03:00 -2°C° 0 mm 4 mps 744 mmHg 92%
04:00 -2°C° 0 mm 5 mps 744 mmHg 92%
05:00 -2°C° 0 mm 5 mps 744 mmHg 91%
06:00 -3°C° 0 mm 6 mps 744 mmHg 91%
07:00 -3°C° 0.1 mm 6 mps 744 mmHg 86%
08:00 -3°C° 0.1 mm 6 mps 745 mmHg 80%
09:00 -3°C° 0 mm 7 mps 745 mmHg 76%
10:00 -3°C° 0.1 mm 7 mps 745 mmHg 73%
11:00 -3°C° 0.1 mm 7 mps 745 mmHg 71%
12:00 -2°C° 0.1 mm 7 mps 746 mmHg 68%
13:00 -2°C° 0.1 mm 7 mps 746 mmHg 70%
14:00 -2°C° 0.1 mm 7 mps 746 mmHg 72%
15:00 -2°C° 0 mm 7 mps 746 mmHg 75%
16:00 -3°C° 0.1 mm 6 mps 747 mmHg 76%
17:00 -3°C° 0.1 mm 6 mps 747 mmHg 77%
18:00 -2°C° 0.1 mm 5 mps 747 mmHg 78%
19:00 -2°C° 0 mm 5 mps 747 mmHg 80%
20:00 -4°C° 0 mm 5 mps 747 mmHg 82%
21:00 -4°C° 0 mm 5 mps 748 mmHg 84%
22:00 -4°C° 0 mm 5 mps 748 mmHg 85%
23:00 -4°C° 0 mm 5 mps 748 mmHg 86%

Tomorrow, 22 October, Thursday

Time Temperature Precipitation Wind Pressure Humidity
00:00 -4°C° 0 mm 5 mps 748 mmHg 86%
01:00 -4°C° 0 mm 5 mps 748 mmHg 85%
02:00 -4°C° 0 mm 5 mps 748 mmHg 83%
03:00 -4°C° 0 mm 6 mps 749 mmHg 81%
04:00 -4°C° 0 mm 5 mps 749 mmHg 83%
05:00 -4°C° 0 mm 5 mps 749 mmHg 84%
06:00 -4°C° 0 mm 5 mps 749 mmHg 86%
07:00 -4°C° 0 mm 5 mps 749 mmHg 82%
08:00 -2°C° 0 mm 5 mps 749 mmHg 79%
09:00 -2°C° 0 mm 5 mps 750 mmHg 76%
10:00 -2°C° 0 mm 5 mps 750 mmHg 75%
11:00 -1°C° 0 mm 5 mps 750 mmHg 75%
12:00 -1°C° 0 mm 5 mps 750 mmHg 74%
13:00 -1°C° 0 mm 5 mps 750 mmHg 74%
14:00 -1°C° 0 mm 5 mps 751 mmHg 74%
15:00 -1°C° 0 mm 5 mps 751 mmHg 73%
16:00 -2°C° 0 mm 4 mps 751 mmHg 77%
17:00 -2°C° 0 mm 3 mps 751 mmHg 80%
18:00 -2°C° 0 mm 3 mps 751 mmHg 83%
19:00 -3°C° 0 mm 2 mps 751 mmHg 85%
20:00 -3°C° 0 mm 2 mps 751 mmHg 86%
21:00 -2°C° 0 mm 1 mps 752 mmHg 87%
22:00 -2°C° 0 mm 1 mps 751 mmHg 87%
23:00 -2°C° 0 mm 1 mps 751 mmHg 87%

Day after tomorrow, 23 October, Friday

Time Temperature Precipitation Wind Pressure Humidity
00:00 -3°C° 0 mm 0 mps 751 mmHg 87%
01:00 -2°C° 0 mm 1 mps 751 mmHg 87%
02:00 -2°C° 0 mm 1 mps 751 mmHg 86%
03:00 -4°C° 0 mm 2 mps 750 mmHg 86%
04:00 -4°C° 0 mm 2 mps 750 mmHg 85%
05:00 -4°C° 0 mm 3 mps 750 mmHg 84%
06:00 -4°C° 0 mm 3 mps 749 mmHg 83%
07:00 -3°C° 0 mm 4 mps 749 mmHg 80%
08:00 -4°C° 0 mm 5 mps 748 mmHg 78%
09:00 -2°C° 0 mm 5 mps 748 mmHg 76%
10:00 -2°C° 0 mm 6 mps 747 mmHg 79%
11:00 -2°C° 0 mm 6 mps 747 mmHg 83%
12:00 -2°C° 0 mm 6 mps 746 mmHg 86%
13:00 -2°C° 0.1 mm 7 mps 746 mmHg 89%
14:00 -2°C° 0.1 mm 7 mps 745 mmHg 92%
15:00 -2°C° 0.1 mm 8 mps 744 mmHg 96%
16:00 -2°C° 0.4 mm 7 mps 744 mmHg 96%
17:00 -1°C° 0.4 mm 7 mps 743 mmHg 96%
18:00 -1°C° 0.4 mm 7 mps 742 mmHg 96%
19:00 +1°C° 0.8 mm 6 mps 742 mmHg 96%
20:00 +1°C° 0.8 mm 6 mps 741 mmHg 96%
21:00 +1°C° 0.8 mm 5 mps 740 mmHg 96%
22:00 +1°C° 0.4 mm 5 mps 740 mmHg 96%
23:00 +3°C° 0.4 mm 4 mps 739 mmHg 97%

24 October, Saturday

Time Temperature Precipitation Wind Pressure Humidity
00:00 +3°C° 0.4 mm 4 mps 739 mmHg 98%
01:00 +3°C° 0.4 mm 4 mps 739 mmHg 98%
02:00 +4°C° 0.4 mm 4 mps 738 mmHg 98%
03:00 +4°C° 0.4 mm 4 mps 738 mmHg 98%
04:00 +5°C° 0.3 mm 4 mps 738 mmHg 97%
05:00 +5°C° 0.3 mm 4 mps 737 mmHg 97%
06:00 +5°C° 0.3 mm 4 mps 737 mmHg 97%
07:00 +5°C° 0.1 mm 4 mps 737 mmHg 97%
08:00 +5°C° 0.1 mm 4 mps 737 mmHg 97%
09:00 +7°C° 0.1 mm 3 mps 736 mmHg 97%
10:00 +7°C° 0.4 mm 3 mps 737 mmHg 96%
11:00 +6°C° 0.4 mm 4 mps 737 mmHg 96%
12:00 +7°C° 0.4 mm 4 mps 737 mmHg 96%
13:00 +7°C° 0.2 mm 4 mps 737 mmHg 93%
14:00 +7°C° 0.2 mm 4 mps 738 mmHg 90%
15:00 +8°C° 0.2 mm 5 mps 738 mmHg 87%
16:00 +7°C° 0 mm 5 mps 739 mmHg 88%
17:00 +7°C° 0 mm 5 mps 739 mmHg 89%
18:00 +6°C° 0 mm 5 mps 740 mmHg 90%
19:00 +6°C° 0.1 mm 5 mps 740 mmHg 91%
20:00 +6°C° 0.1 mm 5 mps 741 mmHg 91%
21:00 +6°C° 0.1 mm 5 mps 741 mmHg 92%
22:00 +5°C° 0 mm 5 mps 742 mmHg 91%
23:00 +3°C° 0 mm 5 mps 742 mmHg 89%

25 October, Sunday

Time Temperature Precipitation Wind Pressure Humidity
00:00 +3°C° 0 mm 5 mps 743 mmHg 88%
01:00 +3°C° 0 mm 4 mps 743 mmHg 89%
02:00 +1°C° 0 mm 4 mps 743 mmHg 91%
03:00 0°C° 0 mm 4 mps 744 mmHg 92%
04:00 0°C° 0 mm 3 mps 744 mmHg 93%
05:00 0°C° 0 mm 3 mps 744 mmHg 93%
06:00 -1°C° 0 mm 3 mps 745 mmHg 94%
07:00 0°C° 0 mm 3 mps 745 mmHg 90%
08:00 +1°C° 0 mm 3 mps 745 mmHg 87%
09:00 +1°C° 0 mm 3 mps 745 mmHg 83%
10:00 +2°C° 0 mm 3 mps 745 mmHg 78%
11:00 +4°C° 0 mm 2 mps 746 mmHg 73%
12:00 +4°C° 0 mm 2 mps 746 mmHg 68%
13:00 +4°C° 0 mm 2 mps 746 mmHg 69%
14:00 +5°C° 0 mm 1 mps 746 mmHg 71%
15:00 +5°C° 0 mm 1 mps 746 mmHg 72%
16:00 +4°C° 0 mm 1 mps 746 mmHg 74%
17:00 +4°C° 0 mm 1 mps 746 mmHg 76%
18:00 +3°C° 0 mm 1 mps 746 mmHg 78%
19:00 +3°C° 0 mm 1 mps 746 mmHg 81%
20:00 +3°C° 0 mm 1 mps 746 mmHg 83%
21:00 +2°C° 0 mm 2 mps 746 mmHg 85%
22:00 +1°C° 0 mm 2 mps 746 mmHg 86%
23:00 +1°C° 0 mm 2 mps 746 mmHg 87%

26 October, Monday

Time Temperature Precipitation Wind Pressure Humidity
00:00 +1°C° 0 mm 2 mps 746 mmHg 89%
01:00 -1°C° 0 mm 2 mps 746 mmHg 89%
02:00 -1°C° 0 mm 2 mps 746 mmHg 89%
03:00 -1°C° 0 mm 3 mps 746 mmHg 90%
04:00 -1°C° 0 mm 3 mps 747 mmHg 90%
05:00 -2°C° 0 mm 3 mps 747 mmHg 91%
06:00 -2°C° 0 mm 3 mps 747 mmHg 92%
07:00 -1°C° 0 mm 3 mps 747 mmHg 87%
08:00 -1°C° 0 mm 3 mps 748 mmHg 83%
09:00 -1°C° 0 mm 4 mps 748 mmHg 79%
10:00 0°C° 0 mm 4 mps 748 mmHg 76%
11:00 0°C° 0 mm 5 mps 748 mmHg 73%
12:00 +1°C° 0 mm 5 mps 749 mmHg 70%
13:00 +1°C° 0 mm 5 mps 749 mmHg 71%
14:00 0°C° 0 mm 4 mps 749 mmHg 72%
15:00 0°C° 0 mm 4 mps 749 mmHg 72%
16:00 0°C° 0 mm 4 mps 750 mmHg 74%
17:00 -1°C° 0 mm 5 mps 750 mmHg 75%
18:00 -1°C° 0 mm 5 mps 751 mmHg 77%
19:00 -1°C° 0 mm 5 mps 751 mmHg 75%
20:00 -1°C° 0 mm 5 mps 752 mmHg 74%
21:00 -2°C° 0 mm 5 mps 752 mmHg 72%
22:00 -2°C° 0 mm 5 mps 752 mmHg 76%
23:00 -4°C° 0 mm 5 mps 753 mmHg 79%

27 October, Tuesday

Time Temperature Precipitation Wind Pressure Humidity
00:00 -5°C° 0 mm 5 mps 753 mmHg 83%
01:00 -5°C° 0 mm 5 mps 753 mmHg 83%
02:00 -5°C° 0 mm 5 mps 754 mmHg 83%
03:00 -5°C° 0 mm 5 mps 754 mmHg 84%
04:00 -5°C° 0 mm 5 mps 755 mmHg 82%
05:00 -5°C° 0 mm 5 mps 755 mmHg 80%
06:00 -5°C° 0 mm 6 mps 756 mmHg 79%
07:00 -5°C° 0 mm 5 mps 756 mmHg 77%
08:00 -4°C° 0 mm 5 mps 756 mmHg 74%
09:00 -4°C° 0 mm 5 mps 757 mmHg 72%
10:00 -2°C° 0 mm 5 mps 757 mmHg 70%
11:00 -2°C° 0 mm 5 mps 757 mmHg 68%
12:00 -1°C° 0 mm 5 mps 758 mmHg 66%
13:00 -1°C° 0 mm 5 mps 758 mmHg 68%
14:00 -1°C° 0 mm 4 mps 758 mmHg 69%
15:00 -1°C° 0 mm 4 mps 758 mmHg 70%
16:00 -1°C° 0 mm 3 mps 758 mmHg 75%
17:00 -2°C° 0 mm 3 mps 759 mmHg 79%
18:00 -2°C° 0 mm 3 mps 759 mmHg 83%
19:00 -3°C° 0 mm 2 mps 759 mmHg 83%
20:00 -3°C° 0 mm 2 mps 760 mmHg 84%
21:00 -3°C° 0 mm 2 mps 760 mmHg 84%
22:00 -1°C° 0 mm 1 mps 760 mmHg 83%
23:00 -1°C° 0 mm 1 mps 760 mmHg 82%
Show more